| time (UTC) | temp C | wind direction | speed KPH | gust KPH | rain 1hr cm | rain 24hr cm | rain mn cm | humidity % | barometer mb |
| 20260507115018 | 7 | 322 | 4.8 | 4.8 | 0.00 | 0.00 | 0.00 | 81 | 1020.2 |
| 20260507114515 | 7 | 303 | 4.8 | 4.8 | 0.00 | 0.00 | 0.00 | 81 | 1020.2 |
| 20260507114012 | 7 | 314 | 4.8 | 4.8 | 0.00 | 0.00 | 0.00 | 82 | 1020.3 |
| 20260507113509 | 6 | 307 | 4.8 | 4.8 | 0.00 | 0.00 | 0.00 | 82 | 1020.2 |
| 20260507113006 | 6 | 311 | 3.2 | 3.2 | 0.00 | 0.00 | 0.00 | 84 | 1020.1 |
| 20260507112504 | 6 | 301 | 4.8 | 4.8 | 0.00 | 0.00 | 0.00 | 86 | 1020.0 |
| 20260507112000 | 6 | 295 | 3.2 | 3.2 | 0.00 | 0.00 | 0.00 | 87 | 1019.9 |
| 20260507111459 | 5 | 290 | 3.2 | 3.2 | 0.00 | 0.00 | 0.00 | 87 | 1019.7 |
| 20260507110954 | 5 | 282 | 3.2 | 3.2 | 0.00 | 0.00 | 0.00 | 88 | 1019.8 |
| 20260507110450 | 5 | 278 | 3.2 | 3.2 | 0.00 | 0.00 | 0.00 | 88 | 1020.1 |
| 20260507105947 | 5 | 272 | 3.2 | 3.2 | 0.00 | 0.00 | 0.00 | 88 | 1019.7 |
| 20260507105444 | 5 | 278 | 3.2 | 3.2 | 0.00 | 0.00 | 0.00 | 88 | 1019.5 |
| 20260507104940 | 5 | 277 | 4.8 | 4.8 | 0.00 | 0.00 | 0.00 | 88 | 1019.6 |
| 20260507104438 | 4 | 287 | 4.8 | 4.8 | 0.00 | 0.00 | 0.00 | 89 | 1019.4 |
| 20260507103933 | 4 | 271 | 3.2 | 3.2 | 0.00 | 0.00 | 0.00 | 89 | 1019.7 |
| 20260507103430 | 4 | 278 | 3.2 | 3.2 | 0.00 | 0.00 | 0.00 | 89 | 1019.5 |
| 20260507102926 | 4 | 301 | 1.6 | 3.2 | 0.00 | 0.00 | 0.00 | 90 | 1019.4 |
| 20260507102423 | 4 | 295 | 4.8 | 8.0 | 0.00 | 0.00 | 0.00 | 90 | 1019.7 |
| 20260507101920 | 4 | 274 | 3.2 | 3.2 | 0.00 | 0.00 | 0.00 | 90 | 1019.3 |
| 20260507101415 | 4 | 278 | 3.2 | 3.2 | 0.00 | 0.00 | 0.00 | 90 | 1019.5 |
| 20260507100911 | 4 | 276 | 3.2 | 3.2 | 0.00 | 0.00 | 0.00 | 90 | 1019.3 |
| 20260507100409 | 4 | 275 | 3.2 | 3.2 | 0.00 | 0.00 | 0.00 | 90 | 1019.5 |
| 20260507095907 | 5 | 270 | 3.2 | 3.2 | 0.00 | 0.00 | 0.00 | 89 | 1019.4 |
| 20260507095404 | 5 | 273 | 3.2 | 3.2 | 0.00 | 0.00 | 0.00 | 89 | 1019.3 |
| 20260507094901 | 5 | 277 | 3.2 | 3.2 | 0.00 | 0.00 | 0.00 | 88 | 1019.5 |
| 20260507094357 | 5 | 274 | 3.2 | 3.2 | 0.00 | 0.00 | 0.00 | 88 | 1019.5 |
| 20260507093854 | 5 | 274 | 3.2 | 3.2 | 0.00 | 0.00 | 0.00 | 88 | 1019.5 |
| 20260507093353 | 5 | 267 | 3.2 | 3.2 | 0.00 | 0.00 | 0.00 | 89 | 1019.5 |
| 20260507092850 | 5 | 271 | 3.2 | 3.2 | 0.00 | 0.00 | 0.00 | 89 | 1019.3 |
| 20260507092346 | 5 | 273 | 3.2 | 3.2 | 0.00 | 0.00 | 0.00 | 89 | 1019.4 |
| 20260507091843 | 5 | 272 | 3.2 | 3.2 | 0.00 | 0.00 | 0.00 | 89 | 1019.2 |
| 20260507091339 | 5 | 282 | 0.0 | 0.0 | 0.00 | 0.00 | 0.00 | 90 | 1019.6 |
| 20260507090835 | 5 | 273 | 0.0 | 0.0 | 0.00 | 0.00 | 0.00 | 91 | 1019.4 |
| 20260507090331 | 5 | 281 | 0.0 | 0.0 | 0.00 | 0.00 | 0.00 | 91 | 1019.3 |
| 20260507085829 | 5 | 272 | 0.0 | 0.0 | 0.00 | 0.00 | 0.00 | 92 | 1019.4 |
| 20260507085325 | 5 | 273 | 0.0 | 0.0 | 0.00 | 0.00 | 0.00 | 93 | 1019.3 |
| 20260507084823 | 5 | 272 | 0.0 | 0.0 | 0.00 | 0.00 | 0.00 | 94 | 1019.2 |
| 20260507084319 | 5 | 268 | 0.0 | 0.0 | 0.00 | 0.00 | 0.00 | 94 | 1019.3 |
| 20260507083817 | 5 | 260 | 0.0 | 0.0 | 0.00 | 0.00 | 0.00 | 95 | 1019.1 |
| 20260507083313 | 5 | 260 | 0.0 | 0.0 | 0.00 | 0.00 | 0.00 | 95 | 1019.3 |
| 20260507082809 | 5 | 260 | 0.0 | 0.0 | 0.00 | 0.00 | 0.00 | 96 | 1019.2 |
| 20260507082306 | 5 | 246 | 0.0 | 0.0 | 0.00 | 0.00 | 0.00 | 96 | 1019.2 |
| 20260507081803 | 5 | 248 | 0.0 | 0.0 | 0.00 | 0.00 | 0.00 | 97 | 1019.3 |
| 20260507081258 | 5 | 284 | 0.0 | 0.0 | 0.00 | 0.00 | 0.00 | 97 | 1019.3 |
| 20260507080755 | 5 | 290 | 0.0 | 0.0 | 0.00 | 0.00 | 0.00 | 96 | 1019.2 |
| 20260507080251 | 5 | 290 | 0.0 | 0.0 | 0.00 | 0.00 | 0.00 | 97 | 1019.3 |
| 20260507075746 | 5 | 290 | 0.0 | 0.0 | 0.00 | 0.00 | 0.00 | 97 | 1019.4 |
| 20260507075243 | 5 | 290 | 0.0 | 0.0 | 0.00 | 0.00 | 0.00 | 97 | 1019.2 |
| 20260507074739 | 5 | 290 | 0.0 | 0.0 | 0.00 | 0.00 | 0.00 | 97 | 1019.1 |
| 20260507074238 | 5 | 303 | 0.0 | 0.0 | 0.00 | 0.00 | 0.00 | 97 | 1019.2 |
| 20260507073734 | 5 | 303 | 0.0 | 0.0 | 0.00 | 0.00 | 0.00 | 96 | 1019.3 |
| 20260507073230 | 5 | 304 | 0.0 | 0.0 | 0.00 | 0.00 | 0.00 | 96 | 1019.3 |
| 20260507072728 | 5 | 284 | 0.0 | 0.0 | 0.00 | 0.00 | 0.00 | 97 | 1019.2 |
| 20260507072225 | 5 | 267 | 0.0 | 0.0 | 0.00 | 0.00 | 0.00 | 97 | 1019.2 |
| 20260507071723 | 5 | 303 | 0.0 | 0.0 | 0.00 | 0.00 | 0.00 | 97 | 1019.4 |
| 20260507071219 | 4 | 281 | 0.0 | 0.0 | 0.00 | 0.00 | 0.00 | 96 | 1019.3 |
| 20260507070716 | 4 | 306 | 0.0 | 0.0 | 0.00 | 0.00 | 0.00 | 96 | 1019.2 |
| 20260507070213 | 4 | 326 | 0.0 | 0.0 | 0.00 | 0.00 | 0.00 | 96 | 1019.2 |
| 20260507065709 | 4 | 292 | 0.0 | 0.0 | 0.00 | 0.00 | 0.00 | 96 | 1019.3 |
| 20260507065206 | 4 | 300 | 0.0 | 0.0 | 0.00 | 0.00 | 0.00 | 96 | 1019.3 |
| 20260507064704 | 5 | 327 | 0.0 | 0.0 | 0.00 | 0.00 | 0.00 | 96 | 1019.3 |
| 20260507064203 | 4 | 325 | 0.0 | 0.0 | 0.00 | 0.00 | 0.00 | 96 | 1019.4 |
| 20260507063659 | 4 | 325 | 0.0 | 0.0 | 0.00 | 0.00 | 0.00 | 96 | 1019.2 |
| 20260507063156 | 5 | 325 | 0.0 | 0.0 | 0.00 | 0.00 | 0.00 | 96 | 1019.3 |
| 20260507062653 | 5 | 325 | 0.0 | 0.0 | 0.00 | 0.00 | 0.00 | 96 | 1019.2 |
| 20260507062151 | 5 | 325 | 0.0 | 0.0 | 0.00 | 0.00 | 0.00 | 96 | 1019.2 |
| 20260507061648 | 5 | 325 | 0.0 | 0.0 | 0.00 | 0.00 | 0.00 | 96 | 1019.5 |
| 20260507061146 | 5 | 324 | 0.0 | 0.0 | 0.00 | 0.00 | 0.00 | 96 | 1019.4 |
| 20260507060644 | 5 | 326 | 0.0 | 0.0 | 0.00 | 0.00 | 0.00 | 96 | 1019.4 |
| 20260507060140 | 5 | 262 | 0.0 | 0.0 | 0.00 | 0.00 | 0.00 | 96 | 1019.4 |
| 20260507055636 | 5 | 262 | 0.0 | 0.0 | 0.00 | 0.00 | 0.00 | 96 | 1019.6 |
| 20260507055132 | 4 | 262 | 0.0 | 0.0 | 0.00 | 0.00 | 0.00 | 95 | 1019.5 |
| 20260507054628 | 5 | 261 | 0.0 | 0.0 | 0.00 | 0.00 | 0.00 | 95 | 1019.5 |
| 20260507054125 | 5 | 261 | 0.0 | 0.0 | 0.00 | 0.00 | 0.00 | 95 | 1019.6 |
| 20260507053623 | 5 | 261 | 0.0 | 0.0 | 0.00 | 0.00 | 0.00 | 95 | 1019.5 |
| 20260507053121 | 5 | 276 | 0.0 | 0.0 | 0.00 | 0.00 | 0.00 | 95 | 1019.6 |
| 20260507052619 | 5 | 239 | 0.0 | 0.0 | 0.00 | 0.00 | 0.00 | 95 | 1019.6 |
| 20260507052115 | 5 | 238 | 0.0 | 0.0 | 0.00 | 0.00 | 0.00 | 95 | 1019.5 |
| 20260507051613 | 5 | 238 | 0.0 | 0.0 | 0.00 | 0.00 | 0.00 | 95 | 1019.8 |
| 20260507051110 | 5 | 239 | 0.0 | 0.0 | 0.00 | 0.00 | 0.00 | 95 | 1019.6 |
| 20260507050606 | 5 | 238 | 0.0 | 0.0 | 0.00 | 0.00 | 0.00 | 95 | 1019.8 |
| 20260507050103 | 5 | 238 | 0.0 | 0.0 | 0.00 | 0.00 | 0.00 | 95 | 1019.6 |
| 20260507045600 | 5 | 238 | 0.0 | 0.0 | 0.00 | 0.00 | 0.00 | 95 | 1019.7 |
| 20260507045057 | 5 | 239 | 0.0 | 0.0 | 0.00 | 0.00 | 0.00 | 95 | 1019.7 |
| 20260507044553 | 5 | 245 | 0.0 | 0.0 | 0.00 | 0.00 | 0.00 | 94 | 1019.6 |
| 20260507044050 | 6 | 253 | 0.0 | 0.0 | 0.00 | 0.00 | 0.00 | 94 | 1019.5 |
| 20260507043546 | 6 | 253 | 0.0 | 0.0 | 0.00 | 0.00 | 0.00 | 94 | 1019.3 |
| 20260507043044 | 6 | 252 | 0.0 | 0.0 | 0.00 | 0.00 | 0.00 | 95 | 1019.7 |
| 20260507042539 | 6 | 280 | 0.0 | 0.0 | 0.00 | 0.00 | 0.00 | 94 | 1019.8 |
| 20260507042035 | 6 | 299 | 0.0 | 0.0 | 0.00 | 0.00 | 0.00 | 94 | 1019.6 |
| 20260507041532 | 5 | 299 | 0.0 | 0.0 | 0.00 | 0.00 | 0.00 | 94 | 1019.6 |
| 20260507041029 | 5 | 299 | 0.0 | 0.0 | 0.00 | 0.00 | 0.00 | 93 | 1019.6 |
| 20260507040525 | 6 | 299 | 0.0 | 0.0 | 0.00 | 0.00 | 0.00 | 93 | 1019.4 |
| 20260507040021 | 6 | 299 | 0.0 | 0.0 | 0.00 | 0.99 | 0.99 | 93 | 1019.9 |
| 20260507035518 | 6 | 298 | 0.0 | 0.0 | 0.00 | 0.99 | 0.99 | 93 | 1019.7 |
| 20260507035014 | 6 | 299 | 0.0 | 0.0 | 0.00 | 0.99 | 0.99 | 93 | 1019.7 |
| 20260507034511 | 6 | 286 | 0.0 | 0.0 | 0.00 | 0.99 | 0.99 | 93 | 1019.8 |
| 20260507034009 | 6 | 302 | 0.0 | 0.0 | 0.00 | 0.99 | 0.99 | 92 | 1019.8 |
| 20260507033507 | 6 | 302 | 0.0 | 0.0 | 0.00 | 0.99 | 0.99 | 92 | 1019.6 |
| 20260507033004 | 6 | 302 | 0.0 | 0.0 | 0.00 | 0.99 | 0.99 | 92 | 1019.7 |
| 20260507032501 | 6 | 302 | 0.0 | 0.0 | 0.00 | 0.99 | 0.99 | 91 | 1019.6 |
| 20260507031957 | 6 | 302 | 0.0 | 0.0 | 0.00 | 0.99 | 0.99 | 91 | 1019.6 |
| 20260507031453 | 6 | 302 | 0.0 | 0.0 | 0.00 | 0.99 | 0.99 | 90 | 1019.9 |
| 20260507030950 | 6 | 302 | 0.0 | 0.0 | 0.00 | 0.99 | 0.99 | 90 | 1019.8 |
| 20260507030447 | 6 | 301 | 0.0 | 0.0 | 0.00 | 0.99 | 0.99 | 90 | 1019.8 |
| 20260507025944 | 6 | 300 | 0.0 | 0.0 | 0.00 | 0.99 | 0.99 | 90 | 1020.1 |
| 20260507025442 | 6 | 303 | 0.0 | 0.0 | 0.00 | 0.99 | 0.99 | 89 | 1019.7 |
| 20260507024939 | 6 | 303 | 0.0 | 0.0 | 0.00 | 0.99 | 0.99 | 88 | 1019.8 |
| 20260507024437 | 6 | 303 | 0.0 | 0.0 | 0.00 | 0.99 | 0.99 | 86 | 1019.9 |
| 20260507023932 | 7 | 303 | 0.0 | 0.0 | 0.00 | 0.99 | 0.99 | 85 | 1019.8 |
| 20260507023429 | 7 | 303 | 0.0 | 0.0 | 0.00 | 0.99 | 0.99 | 84 | 1019.9 |
| 20260507022926 | 7 | 303 | 0.0 | 0.0 | 0.00 | 0.99 | 0.99 | 83 | 1019.7 |
| 20260507022424 | 8 | 303 | 0.0 | 0.0 | 0.00 | 0.99 | 0.99 | 81 | 1019.8 |
| 20260507021919 | 8 | 303 | 0.0 | 0.0 | 0.00 | 0.99 | 0.99 | 80 | 1019.7 |
| 20260507021414 | 8 | 303 | 0.0 | 0.0 | 0.00 | 0.99 | 0.99 | 79 | 1019.7 |
| 20260507020913 | 9 | 303 | 0.0 | 0.0 | 0.00 | 0.99 | 0.99 | 78 | 1019.6 |
| 20260507020409 | 9 | 302 | 0.0 | 0.0 | 0.00 | 0.99 | 0.99 | 77 | 1019.7 |
| 20260507015906 | 8 | 310 | 0.0 | 0.0 | 0.00 | 0.99 | 0.99 | 78 | 1019.7 |
| 20260507015404 | 9 | 325 | 0.0 | 0.0 | 0.00 | 0.99 | 0.99 | 77 | 1019.5 |
| 20260507014901 | 9 | 325 | 0.0 | 0.0 | 0.00 | 0.99 | 0.99 | 77 | 1019.4 |
| 20260507014356 | 9 | 327 | 0.0 | 0.0 | 0.00 | 0.99 | 0.99 | 75 | 1019.2 |
| 20260507013853 | 9 | 352 | 0.0 | 0.0 | 0.00 | 0.99 | 0.99 | 74 | 1019.1 |
| 20260507013345 | 9 | 348 | 0.0 | 0.0 | 0.00 | 0.99 | 0.99 | 71 | 1019.0 |
| 20260507012842 | 10 | 336 | 0.0 | 0.0 | 0.00 | 0.99 | 0.99 | 70 | 1018.9 |
| 20260507012337 | 10 | 335 | 0.0 | 0.0 | 0.00 | 0.99 | 0.99 | 70 | 1019.1 |
| 20260507011834 | 10 | 335 | 0.0 | 0.0 | 0.00 | 0.99 | 0.99 | 69 | 1019.1 |
| 20260507011331 | 10 | 337 | 1.6 | 1.6 | 0.00 | 0.99 | 0.99 | 68 | 1019.1 |
| 20260507010826 | 10 | 343 | 0.0 | 0.0 | 0.00 | 0.99 | 0.99 | 67 | 1019.4 |
| 20260507010322 | 10 | 345 | 1.6 | 3.2 | 0.00 | 0.99 | 0.99 | 67 | 1019.1 |
| 20260507005819 | 10 | 341 | 0.0 | 0.0 | 0.00 | 0.99 | 0.99 | 67 | 1018.8 |
| 20260507005316 | 10 | 340 | 0.0 | 0.0 | 0.00 | 0.99 | 0.99 | 66 | 1019.4 |
| 20260507004807 | 11 | 320 | 3.2 | 3.2 | 0.00 | 0.99 | 0.99 | 65 | 1019.0 |
| 20260507004304 | 11 | 343 | 1.6 | 3.2 | 0.00 | 0.99 | 0.99 | 64 | 1019.3 |
| 20260507003801 | 11 | 352 | 1.6 | 1.6 | 0.00 | 0.99 | 0.99 | 62 | 1019.1 |
| 20260507003255 | 11 | 339 | 3.2 | 4.8 | 0.00 | 0.99 | 0.99 | 61 | 1018.9 |
| 20260507002752 | 11 | 354 | 1.6 | 1.6 | 0.00 | 0.99 | 0.99 | 61 | 1018.8 |
| 20260507002248 | 12 | 316 | 4.8 | 4.8 | 0.00 | 0.99 | 0.99 | 59 | 1018.8 |
| 20260507001745 | 12 | 5 | 1.6 | 1.6 | 0.00 | 0.99 | 0.99 | 60 | 1018.8 |
| 20260507001242 | 12 | 359 | 3.2 | 3.2 | 0.00 | 0.99 | 0.99 | 58 | 1018.6 |
| 20260507000738 | 12 | 356 | 6.4 | 8.0 | 0.00 | 0.99 | 0.99 | 59 | 1018.2 |
| 20260507000234 | 12 | 17 | 8.0 | 9.7 | 0.00 | 0.99 | 0.99 | 61 | 1018.3 |
| 20260506235731 | 12 | 340 | 1.6 | 1.6 | 0.00 | 0.99 | 0.99 | 60 | 1018.1 |
| 20260506235227 | 12 | 353 | 6.4 | 8.0 | 0.00 | 0.99 | 0.99 | 58 | 1018.2 |
| 20260506234724 | 12 | 12 | 1.6 | 3.2 | 0.00 | 0.99 | 0.99 | 61 | 1018.1 |
| 20260506234221 | 12 | 348 | 1.6 | 1.6 | 0.00 | 0.99 | 0.99 | 59 | 1017.9 |
| 20260506233719 | 12 | 14 | 6.4 | 8.0 | 0.00 | 0.99 | 0.99 | 59 | 1018.1 |
| 20260506233215 | 12 | 353 | 3.2 | 3.2 | 0.00 | 0.99 | 0.99 | 62 | 1017.9 |
| 20260506232712 | 12 | 340 | 6.4 | 9.7 | 0.00 | 0.99 | 0.99 | 59 | 1017.8 |
| 20260506232207 | 12 | 0 | 6.4 | 9.7 | 0.00 | 0.99 | 0.99 | 58 | 1017.7 |
| 20260506231704 | 12 | 338 | 4.8 | 4.8 | 0.00 | 0.99 | 0.99 | 60 | 1017.9 |
| 20260506231203 | 12 | 345 | 3.2 | 3.2 | 0.00 | 0.99 | 0.99 | 57 | 1018.0 |
| 20260506230659 | 12 | 38 | 3.2 | 3.2 | 0.00 | 0.99 | 0.99 | 58 | 1017.9 |
| 20260506230156 | 12 | 339 | 6.4 | 9.7 | 0.00 | 0.99 | 0.99 | 58 | 1017.9 |
| 20260506225652 | 13 | 322 | 4.8 | 9.7 | 0.00 | 0.99 | 0.99 | 56 | 1018.2 |
| 20260506225149 | 13 | 7 | 4.8 | 4.8 | 0.00 | 0.99 | 0.99 | 54 | 1018.2 |
| 20260506224646 | 13 | 352 | 8.0 | 11.3 | 0.00 | 0.99 | 0.99 | 55 | 1018.1 |
| 20260506224142 | 13 | 340 | 4.8 | 4.8 | 0.00 | 0.99 | 0.99 | 56 | 1018.3 |
| 20260506223639 | 13 | 348 | 6.4 | 9.7 | 0.00 | 0.99 | 0.99 | 55 | 1018.3 |
| 20260506223135 | 13 | 338 | 6.4 | 9.7 | 0.00 | 0.99 | 0.99 | 56 | 1018.3 |
| 20260506222632 | 13 | 321 | 9.7 | 11.3 | 0.00 | 0.99 | 0.99 | 56 | 1018.5 |
| 20260506222128 | 13 | 340 | 3.2 | 3.2 | 0.00 | 0.99 | 0.99 | 57 | 1018.8 |
| 20260506221626 | 13 | 351 | 8.0 | 11.3 | 0.00 | 0.99 | 0.99 | 56 | 1018.4 |
| 20260506221124 | 13 | 350 | 4.8 | 4.8 | 0.00 | 0.99 | 0.99 | 59 | 1018.1 |
| 20260506220620 | 13 | 329 | 9.7 | 12.9 | 0.00 | 0.99 | 0.99 | 57 | 1018.5 |
| 20260506220115 | 13 | 346 | 8.0 | 9.7 | 0.00 | 0.99 | 0.99 | 56 | 1018.8 |
| 20260506215612 | 13 | 342 | 9.7 | 12.9 | 0.00 | 0.99 | 0.99 | 57 | 1018.3 |
| 20260506215108 | 13 | 346 | 9.7 | 12.9 | 0.00 | 0.99 | 0.99 | 57 | 1018.4 |
| 20260506214605 | 13 | 353 | 6.4 | 8.0 | 0.00 | 0.99 | 0.99 | 59 | 1018.0 |
| 20260506214102 | 13 | 329 | 9.7 | 11.3 | 0.00 | 0.99 | 0.99 | 56 | 1018.3 |
| 20260506213600 | 13 | 1 | 4.8 | 4.8 | 0.00 | 0.99 | 0.99 | 56 | 1017.9 |
| 20260506213057 | 13 | 348 | 4.8 | 4.8 | 0.00 | 0.99 | 0.99 | 55 | 1018.1 |
| 20260506212554 | 14 | 333 | 8.0 | 11.3 | 0.00 | 0.99 | 0.99 | 56 | 1017.8 |
| 20260506212049 | 14 | 327 | 9.7 | 11.3 | 0.00 | 0.99 | 0.99 | 54 | 1017.8 |
| 20260506211545 | 14 | 326 | 4.8 | 4.8 | 0.00 | 0.99 | 0.99 | 54 | 1017.9 |
| 20260506211042 | 15 | 350 | 3.2 | 3.2 | 0.00 | 0.99 | 0.99 | 54 | 1017.8 |
| 20260506210539 | 14 | 306 | 4.8 | 9.7 | 0.00 | 0.99 | 0.99 | 58 | 1017.7 |
| 20260506210035 | 14 | 350 | 9.7 | 12.9 | 0.00 | 0.99 | 0.99 | 53 | 1017.6 |
| 20260506205532 | 14 | 0 | 1.6 | 3.2 | 0.00 | 0.99 | 0.99 | 57 | 1017.6 |
| 20260506205027 | 15 | 324 | 9.7 | 11.3 | 0.00 | 0.99 | 0.99 | 52 | 1017.6 |
| 20260506204526 | 15 | 11 | 1.6 | 3.2 | 0.00 | 0.99 | 0.99 | 51 | 1017.7 |
| 20260506204022 | 15 | 352 | 3.2 | 3.2 | 0.00 | 0.99 | 0.99 | 55 | 1017.8 |
| 20260506203521 | 15 | 327 | 4.8 | 11.3 | 0.00 | 0.99 | 0.99 | 52 | 1017.7 |
| 20260506203017 | 15 | 338 | 4.8 | 8.0 | 0.00 | 0.99 | 0.99 | 55 | 1017.6 |
| 20260506202514 | 15 | 349 | 4.8 | 4.8 | 0.00 | 0.99 | 0.99 | 54 | 1017.9 |
| 20260506202010 | 15 | 333 | 8.0 | 11.3 | 0.00 | 0.99 | 0.99 | 54 | 1017.8 |
| 20260506201509 | 15 | 304 | 4.8 | 4.8 | 0.00 | 0.99 | 0.99 | 56 | 1017.8 |
| 20260506201004 | 15 | 357 | 8.0 | 9.7 | 0.00 | 0.99 | 0.99 | 55 | 1017.8 |
| 20260506200501 | 15 | 324 | 6.4 | 8.0 | 0.00 | 0.99 | 0.99 | 52 | 1017.9 |
| 20260506195957 | 15 | 323 | 4.8 | 8.0 | 0.00 | 0.99 | 0.99 | 55 | 1017.7 |
| 20260506195454 | 15 | 23 | 3.2 | 8.0 | 0.00 | 0.99 | 0.99 | 55 | 1017.6 |
| 20260506194945 | 15 | 8 | 6.4 | 8.0 | 0.00 | 0.99 | 0.99 | 54 | 1017.6 |
| 20260506194443 | 15 | 316 | 4.8 | 4.8 | 0.00 | 0.99 | 0.99 | 53 | 1017.7 |
| 20260506193939 | 15 | 30 | 1.6 | 1.6 | 0.00 | 0.99 | 0.99 | 55 | 1017.6 |
| 20260506193436 | 15 | 330 | 4.8 | 8.0 | 0.00 | 0.99 | 0.99 | 52 | 1017.4 |
| 20260506192933 | 16 | 3 | 6.4 | 9.7 | 0.00 | 0.99 | 0.99 | 51 | 1017.4 |
| 20260506192430 | 16 | 312 | 6.4 | 8.0 | 0.00 | 0.99 | 0.99 | 54 | 1017.6 |
| 20260506191926 | 16 | 333 | 8.0 | 11.3 | 0.00 | 0.99 | 0.99 | 55 | 1017.3 |
| 20260506191423 | 16 | 326 | 6.4 | 11.3 | 0.00 | 0.99 | 0.99 | 55 | 1017.4 |
| 20260506190920 | 16 | 102 | 4.8 | 8.0 | 0.00 | 0.99 | 0.99 | 53 | 1017.5 |
| 20260506190416 | 15 | 278 | 3.2 | 8.0 | 0.00 | 0.99 | 0.99 | 56 | 1017.3 |
| 20260506185913 | 15 | 45 | 3.2 | 3.2 | 0.00 | 0.99 | 0.99 | 57 | 1017.5 |
| 20260506185411 | 16 | 347 | 11.3 | 16.1 | 0.00 | 0.99 | 0.99 | 52 | 1017.5 |
| 20260506184908 | 16 | 82 | 3.2 | 4.8 | 0.00 | 0.99 | 0.99 | 49 | 1017.4 |
| 20260506184404 | 15 | 341 | 4.8 | 4.8 | 0.00 | 0.99 | 0.99 | 58 | 1017.5 |
| 20260506183902 | 15 | 45 | 4.8 | 8.0 | 0.00 | 0.99 | 0.99 | 56 | 1017.5 |
| 20260506183357 | 15 | 1 | 11.3 | 12.9 | 0.00 | 0.99 | 0.99 | 53 | 1017.2 |
| 20260506182854 | 15 | 316 | 11.3 | 14.5 | 0.00 | 0.99 | 0.99 | 53 | 1017.7 |
| 20260506182351 | 15 | 329 | 11.3 | 14.5 | 0.00 | 0.99 | 0.99 | 58 | 1017.5 |
| 20260506181848 | 15 | 313 | 8.0 | 9.7 | 0.00 | 0.99 | 0.99 | 58 | 1017.4 |
| 20260506181347 | 15 | 15 | 1.6 | 1.6 | 0.00 | 0.99 | 0.99 | 60 | 1017.2 |
| 20260506180843 | 15 | 71 | 6.4 | 9.7 | 0.00 | 0.99 | 0.99 | 59 | 1017.6 |
| 20260506180339 | 15 | 31 | 6.4 | 8.0 | 0.00 | 0.99 | 0.99 | 53 | 1017.7 |
| 20260506175836 | 14 | 1 | 6.4 | 9.7 | 0.00 | 0.99 | 0.99 | 59 | 1017.9 |
| 20260506175333 | 14 | 357 | 4.8 | 8.0 | 0.00 | 0.99 | 0.99 | 56 | 1017.9 |
| 20260506174830 | 15 | 18 | 3.2 | 4.8 | 0.00 | 0.99 | 0.99 | 58 | 1017.7 |
| 20260506174327 | 14 | 326 | 11.3 | 11.3 | 0.00 | 0.99 | 0.99 | 56 | 1017.8 |
| 20260506173825 | 14 | 72 | 8.0 | 9.7 | 0.00 | 0.99 | 0.99 | 56 | 1017.9 |
| 20260506173321 | 14 | 12 | 1.6 | 3.2 | 0.00 | 0.99 | 0.99 | 60 | 1017.6 |
| 20260506172818 | 14 | 335 | 4.8 | 4.8 | 0.00 | 0.99 | 0.99 | 57 | 1017.7 |
| 20260506172314 | 14 | 347 | 4.8 | 8.0 | 0.00 | 0.99 | 0.99 | 59 | 1017.8 |
| 20260506171807 | 14 | 59 | 3.2 | 4.8 | 0.00 | 0.99 | 0.99 | 62 | 1017.9 |
| 20260506171304 | 15 | 104 | 4.8 | 4.8 | 0.00 | 0.99 | 0.99 | 63 | 1017.8 |
| 20260506170802 | 13 | 2 | 4.8 | 8.0 | 0.00 | 0.99 | 0.99 | 65 | 1017.8 |
| 20260506170257 | 13 | 18 | 8.0 | 9.7 | 0.00 | 0.99 | 0.99 | 62 | 1018.1 |
| 20260506165756 | 13 | 71 | 8.0 | 12.9 | 0.00 | 0.99 | 0.99 | 58 | 1018.3 |
| 20260506165253 | 13 | 357 | 4.8 | 8.0 | 0.00 | 0.99 | 0.99 | 64 | 1018.0 |
| 20260506164750 | 13 | 0 | 11.3 | 16.1 | 0.00 | 0.99 | 0.99 | 65 | 1017.8 |
| 20260506164247 | 13 | 4 | 11.3 | 14.5 | 0.00 | 0.99 | 0.99 | 59 | 1018.0 |
| 20260506163743 | 13 | 359 | 1.6 | 3.2 | 0.00 | 0.99 | 0.99 | 59 | 1017.7 |
| 20260506163238 | 13 | 37 | 4.8 | 4.8 | 0.00 | 0.99 | 0.99 | 66 | 1017.8 |
| 20260506162735 | 13 | 350 | 1.6 | 1.6 | 0.00 | 0.99 | 0.99 | 64 | 1017.7 |
| 20260506162233 | 13 | 12 | 4.8 | 8.0 | 0.00 | 0.99 | 0.99 | 67 | 1017.6 |
| 20260506161729 | 12 | 353 | 3.2 | 3.2 | 0.00 | 0.99 | 0.99 | 64 | 1017.7 |
| 20260506161226 | 12 | 335 | 8.0 | 12.9 | 0.00 | 0.99 | 0.99 | 65 | 1017.8 |
| 20260506160724 | 12 | 309 | 8.0 | 11.3 | 0.00 | 0.99 | 0.99 | 67 | 1017.9 |
| 20260506160220 | 12 | 9 | 4.8 | 4.8 | 0.00 | 0.99 | 0.99 | 68 | 1018.0 |
| 20260506155719 | 12 | 30 | 8.0 | 9.7 | 0.00 | 0.99 | 0.99 | 67 | 1018.0 |
| 20260506155215 | 12 | 351 | 8.0 | 12.9 | 0.00 | 0.99 | 0.99 | 68 | 1017.8 |
| 20260506153317 | 13 | 10 | 3.2 | 3.2 | 0.00 | 0.99 | 0.99 | 74 | 1017.4 |
| 20260506152814 | 12 | 348 | 4.8 | 8.0 | 0.00 | 0.99 | 0.99 | 72 | 1017.2 |
| 20260506152311 | 12 | 22 | 4.8 | 9.7 | 0.00 | 0.99 | 0.99 | 72 | 1017.5 |
| 20260506151810 | 12 | 354 | 1.6 | 3.2 | 0.00 | 0.99 | 0.99 | 70 | 1017.4 |
| 20260506151306 | 12 | 31 | 4.8 | 9.7 | 0.00 | 0.99 | 0.99 | 71 | 1017.3 |
| 20260506150803 | 12 | 4 | 1.6 | 1.6 | 0.00 | 0.99 | 0.99 | 73 | 1016.9 |
| 20260506150304 | 11 | 31 | 1.6 | 3.2 | 0.00 | 0.99 | 0.99 | 73 | 1016.8 |
| 20260506145757 | 12 | 18 | 4.8 | 8.0 | 0.00 | 0.99 | 0.99 | 74 | 1016.9 |
| 20260506145253 | 11 | 104 | 4.8 | 8.0 | 0.00 | 0.99 | 0.99 | 73 | 1017.1 |
| 20260506144751 | 11 | 318 | 8.0 | 11.3 | 0.00 | 0.99 | 0.99 | 73 | 1016.8 |
| 20260506144248 | 11 | 15 | 8.0 | 11.3 | 0.00 | 0.99 | 0.99 | 74 | 1016.8 |
| 20260506143745 | 11 | 74 | 3.2 | 8.0 | 0.00 | 0.99 | 0.99 | 74 | 1016.7 |
| 20260506143243 | 11 | 69 | 0.0 | 1.6 | 0.00 | 0.99 | 0.99 | 80 | 1016.7 |
| 20260506142741 | 11 | 39 | 6.4 | 8.0 | 0.00 | 0.99 | 0.99 | 77 | 1016.8 |
| 20260506142239 | 11 | 17 | 3.2 | 3.2 | 0.00 | 0.99 | 0.99 | 78 | 1016.7 |
| 20260506141736 | 10 | 4 | 3.2 | 4.8 | 0.00 | 0.99 | 0.99 | 80 | 1016.7 |
| 20260506141235 | 11 | 3 | 6.4 | 11.3 | 0.00 | 0.99 | 0.99 | 77 | 1016.8 |
| 20260506140732 | 11 | 7 | 3.2 | 4.8 | 0.00 | 0.99 | 0.99 | 76 | 1016.9 |
| 20260506140229 | 11 | 1 | 3.2 | 3.2 | 0.00 | 0.99 | 0.99 | 77 | 1016.5 |
| 20260506135725 | 11 | 243 | 1.6 | 3.2 | 0.00 | 0.99 | 0.99 | 77 | 1016.1 |
| 20260506135222 | 11 | 33 | 3.2 | 3.2 | 0.00 | 0.99 | 0.99 | 79 | 1016.5 |
| 20260506134719 | 10 | 8 | 1.6 | 1.6 | 0.00 | 0.99 | 0.99 | 83 | 1016.2 |
| 20260506134215 | 10 | 9 | 3.2 | 3.2 | 0.00 | 0.99 | 0.99 | 79 | 1016.4 |
| 20260506133712 | 10 | 20 | 3.2 | 4.8 | 0.00 | 0.99 | 0.99 | 84 | 1016.3 |
| 20260506133209 | 10 | 351 | 4.8 | 4.8 | 0.00 | 0.99 | 0.99 | 81 | 1016.1 |
| 20260506132706 | 10 | 345 | 3.2 | 3.2 | 0.00 | 0.99 | 0.99 | 82 | 1016.0 |
| 20260506132203 | 10 | 349 | 9.7 | 12.9 | 0.00 | 0.99 | 0.99 | 83 | 1016.2 |
| 20260506131701 | 9 | 332 | 6.4 | 9.7 | 0.00 | 0.99 | 0.99 | 87 | 1015.9 |
| 20260506131156 | 8 | 18 | 0.0 | 1.6 | 0.00 | 0.99 | 0.99 | 89 | 1016.3 |
| 20260506130653 | 8 | 30 | 6.4 | 8.0 | 0.00 | 0.99 | 0.99 | 87 | 1016.2 |
| 20260506130151 | 8 | 338 | 4.8 | 8.0 | 0.00 | 0.99 | 0.99 | 89 | 1016.2 |
| 20260506125649 | 8 | 29 | 3.2 | 3.2 | 0.00 | 0.99 | 0.99 | 90 | 1016.0 |
| 20260506125146 | 8 | 322 | 6.4 | 8.0 | 0.00 | 0.99 | 0.99 | 91 | 1015.9 |
| 20260506124644 | 8 | 25 | 1.6 | 3.2 | 0.00 | 0.99 | 0.99 | 92 | 1015.6 |
| 20260506124142 | 7 | 8 | 3.2 | 3.2 | 0.00 | 0.99 | 0.99 | 92 | 1015.8 |
| 20260506123639 | 7 | 334 | 3.2 | 3.2 | 0.00 | 0.99 | 0.99 | 93 | 1015.7 |
| 20260506123138 | 7 | 358 | 1.6 | 3.2 | 0.00 | 0.99 | 0.99 | 93 | 1015.6 |
| 20260506122634 | 7 | 13 | 1.6 | 1.6 | 0.00 | 0.99 | 0.99 | 93 | 1015.2 |
| 20260506122132 | 7 | 348 | 4.8 | 4.8 | 0.00 | 0.99 | 0.99 | 93 | 1015.3 |
| 20260506121629 | 7 | 29 | 1.6 | 1.6 | 0.00 | 0.99 | 0.99 | 94 | 1015.5 |
| 20260506121125 | 7 | 325 | 3.2 | 3.2 | 0.00 | 0.99 | 0.99 | 94 | 1015.3 |
| 20260506120624 | 7 | 313 | 6.4 | 8.0 | 0.00 | 0.99 | 0.99 | 95 | 1015.2 |
| 20260506120121 | 7 | 354 | 3.2 | 3.2 | 0.00 | 0.99 | 0.99 | 95 | 1015.0 |
| 20260506115619 | 7 | 23 | 3.2 | 3.2 | 0.00 | 0.99 | 0.99 | 95 | 1014.7 |